Meteo pe oră la Bolshie Shali

Astăzi, 8 Mai, Sâmbătă

Timp Temperatura Precipitaţii Vânt Presiune Umiditate
00:00 +8°C° 0.2 mm 2 m/s 743 mmHg 92%
01:00 +7°C° 0.3 mm 2 m/s 744 mmHg 93%
02:00 +7°C° 0.3 mm 2 m/s 744 mmHg 93%
03:00 +7°C° 0 mm 2 m/s 744 mmHg 94%
04:00 +7°C° 0 mm 2 m/s 744 mmHg 92%
05:00 +8°C° 0 mm 1 m/s 744 mmHg 90%
06:00 +8°C° 0 mm 1 m/s 745 mmHg 88%
07:00 +8°C° 0 mm 2 m/s 745 mmHg 82%
08:00 +10°C° 0 mm 2 m/s 745 mmHg 76%
09:00 +12°C° 0 mm 2 m/s 745 mmHg 68%
10:00 +12°C° 0 mm 2 m/s 745 mmHg 65%
11:00 +13°C° 0 mm 2 m/s 745 mmHg 61%
12:00 +14°C° 0 mm 2 m/s 745 mmHg 58%
13:00 +14°C° 0 mm 2 m/s 744 mmHg 58%
14:00 +14°C° 0 mm 2 m/s 744 mmHg 57%
15:00 +15°C° 0 mm 2 m/s 744 mmHg 57%
16:00 +14°C° 0 mm 2 m/s 743 mmHg 62%
17:00 +14°C° 0 mm 2 m/s 743 mmHg 67%
18:00 +12°C° 0 mm 3 m/s 743 mmHg 72%
19:00 +12°C° 0 mm 2 m/s 743 mmHg 78%
20:00 +10°C° 0 mm 2 m/s 743 mmHg 85%
21:00 +8°C° 0 mm 2 m/s 743 mmHg 92%
22:00 +8°C° 0 mm 2 m/s 742 mmHg 91%
23:00 +8°C° 0 mm 3 m/s 742 mmHg 91%

Mâine, 9 Mai, Duminică

Timp Temperatura Precipitaţii Vânt Presiune Umiditate
00:00 +8°C° 0 mm 3 m/s 742 mmHg 91%
01:00 +9°C° 0 mm 3 m/s 741 mmHg 88%
02:00 +9°C° 0 mm 3 m/s 741 mmHg 84%
03:00 +8°C° 0 mm 4 m/s 741 mmHg 80%
04:00 +10°C° 0 mm 4 m/s 741 mmHg 78%
05:00 +10°C° 0 mm 4 m/s 741 mmHg 75%
06:00 +11°C° 0 mm 4 m/s 741 mmHg 73%
07:00 +13°C° 0 mm 4 m/s 741 mmHg 68%
08:00 +14°C° 0 mm 4 m/s 741 mmHg 63%
09:00 +16°C° 0 mm 5 m/s 741 mmHg 59%
10:00 +17°C° 0 mm 5 m/s 741 mmHg 54%
11:00 +19°C° 0 mm 5 m/s 741 mmHg 49%
12:00 +20°C° 0 mm 5 m/s 741 mmHg 45%
13:00 +20°C° 0 mm 5 m/s 741 mmHg 46%
14:00 +21°C° 0 mm 5 m/s 741 mmHg 47%
15:00 +21°C° 0 mm 5 m/s 741 mmHg 48%
16:00 +20°C° 0 mm 4 m/s 741 mmHg 51%
17:00 +19°C° 0 mm 4 m/s 741 mmHg 55%
18:00 +18°C° 0 mm 4 m/s 741 mmHg 59%
19:00 +17°C° 0.3 mm 4 m/s 741 mmHg 65%
20:00 +15°C° 0.3 mm 5 m/s 742 mmHg 70%
21:00 +14°C° 0.3 mm 5 m/s 742 mmHg 76%
22:00 +13°C° 0.5 mm 4 m/s 742 mmHg 82%
23:00 +13°C° 0.5 mm 3 m/s 743 mmHg 89%

Poimâine, 10 Mai, Luni

Timp Temperatura Precipitaţii Vânt Presiune Umiditate
00:00 +13°C° 0.5 mm 1 m/s 743 mmHg 96%
01:00 +13°C° 0.3 mm 2 m/s 743 mmHg 95%
02:00 +12°C° 0.3 mm 2 m/s 744 mmHg 95%
03:00 +12°C° 0.3 mm 2 m/s 744 mmHg 95%
04:00 +12°C° 0.1 mm 2 m/s 745 mmHg 94%
05:00 +10°C° 0.1 mm 3 m/s 746 mmHg 93%
06:00 +10°C° 0.1 mm 3 m/s 746 mmHg 92%
07:00 +10°C° 0.1 mm 3 m/s 747 mmHg 91%
08:00 +10°C° 0.1 mm 3 m/s 747 mmHg 90%
09:00 +9°C° 0.1 mm 3 m/s 747 mmHg 90%
10:00 +9°C° 0.2 mm 3 m/s 748 mmHg 89%
11:00 +9°C° 0.2 mm 3 m/s 749 mmHg 87%
12:00 +9°C° 0.2 mm 3 m/s 749 mmHg 86%
13:00 +9°C° 0.4 mm 3 m/s 750 mmHg 88%
14:00 +8°C° 0.4 mm 3 m/s 750 mmHg 89%
15:00 +8°C° 0.4 mm 3 m/s 751 mmHg 91%
16:00 +8°C° 0.1 mm 3 m/s 751 mmHg 89%
17:00 +9°C° 0.1 mm 3 m/s 751 mmHg 87%
18:00 +8°C° 0.1 mm 4 m/s 751 mmHg 85%
19:00 +7°C° 0 mm 4 m/s 752 mmHg 86%
20:00 +7°C° 0 mm 3 m/s 752 mmHg 87%
21:00 +7°C° 0 mm 3 m/s 752 mmHg 88%
22:00 +5°C° 0 mm 3 m/s 753 mmHg 90%
23:00 +5°C° 0 mm 3 m/s 753 mmHg 92%

11 Mai, Marţi

Timp Temperatura Precipitaţii Vânt Presiune Umiditate
00:00 +5°C° 0 mm 2 m/s 753 mmHg 94%
01:00 +5°C° 0 mm 2 m/s 753 mmHg 94%
02:00 +3°C° 0 mm 3 m/s 753 mmHg 94%
03:00 +3°C° 0 mm 3 m/s 754 mmHg 94%
04:00 +4°C° 0 mm 3 m/s 754 mmHg 90%
05:00 +4°C° 0 mm 3 m/s 754 mmHg 87%
06:00 +5°C° 0 mm 4 m/s 755 mmHg 83%
07:00 +7°C° 0 mm 4 m/s 755 mmHg 74%
08:00 +10°C° 0 mm 4 m/s 755 mmHg 64%
09:00 +12°C° 0 mm 4 m/s 755 mmHg 55%
10:00 +13°C° 0 mm 4 m/s 755 mmHg 50%
11:00 +14°C° 0 mm 3 m/s 755 mmHg 46%
12:00 +16°C° 0 mm 3 m/s 755 mmHg 41%
13:00 +17°C° 0 mm 3 m/s 755 mmHg 40%
14:00 +17°C° 0 mm 3 m/s 755 mmHg 39%
15:00 +18°C° 0 mm 3 m/s 755 mmHg 38%
16:00 +17°C° 0 mm 3 m/s 755 mmHg 44%
17:00 +16°C° 0 mm 2 m/s 755 mmHg 50%
18:00 +15°C° 0 mm 2 m/s 755 mmHg 55%
19:00 +14°C° 0 mm 2 m/s 755 mmHg 60%
20:00 +12°C° 0 mm 2 m/s 755 mmHg 65%
21:00 +9°C° 0 mm 2 m/s 755 mmHg 70%
22:00 +8°C° 0 mm 2 m/s 755 mmHg 71%
23:00 +8°C° 0 mm 2 m/s 755 mmHg 73%

12 Mai, Miercuri

Timp Temperatura Precipitaţii Vânt Presiune Umiditate
00:00 +7°C° 0 mm 2 m/s 755 mmHg 74%
01:00 +7°C° 0 mm 2 m/s 755 mmHg 74%
02:00 +7°C° 0 mm 2 m/s 755 mmHg 74%
03:00 +7°C° 0 mm 2 m/s 755 mmHg 75%
04:00 +8°C° 0 mm 2 m/s 755 mmHg 72%
05:00 +9°C° 0 mm 2 m/s 755 mmHg 69%
06:00 +10°C° 0 mm 2 m/s 755 mmHg 66%
07:00 +13°C° 0 mm 2 m/s 755 mmHg 58%
08:00 +15°C° 0 mm 2 m/s 756 mmHg 51%
09:00 +17°C° 0 mm 3 m/s 756 mmHg 44%
10:00 +18°C° 0 mm 3 m/s 755 mmHg 41%
11:00 +19°C° 0 mm 3 m/s 755 mmHg 38%
12:00 +20°C° 0 mm 3 m/s 755 mmHg 35%
13:00 +21°C° 0 mm 3 m/s 755 mmHg 36%
14:00 +21°C° 0 mm 3 m/s 755 mmHg 37%
15:00 +22°C° 0 mm 3 m/s 754 mmHg 37%
16:00 +21°C° 0 mm 2 m/s 754 mmHg 44%
17:00 +20°C° 0 mm 2 m/s 754 mmHg 50%
18:00 +19°C° 0 mm 2 m/s 754 mmHg 57%
19:00 +17°C° 0 mm 2 m/s 754 mmHg 61%
20:00 +16°C° 0 mm 1 m/s 754 mmHg 65%
21:00 +14°C° 0 mm 1 m/s 753 mmHg 70%
22:00 +13°C° 0 mm 1 m/s 753 mmHg 71%
23:00 +13°C° 0 mm 1 m/s 753 mmHg 73%

13 Mai, Joi

Timp Temperatura Precipitaţii Vânt Presiune Umiditate
00:00 +12°C° 0 mm 2 m/s 753 mmHg 75%
01:00 +12°C° 0 mm 2 m/s 753 mmHg 76%
02:00 +12°C° 0 mm 2 m/s 753 mmHg 78%
03:00 +10°C° 0 mm 2 m/s 753 mmHg 79%
04:00 +12°C° 0 mm 2 m/s 753 mmHg 76%
05:00 +14°C° 0 mm 2 m/s 753 mmHg 73%
06:00 +15°C° 0 mm 2 m/s 754 mmHg 71%
07:00 +17°C° 0 mm 3 m/s 754 mmHg 64%
08:00 +19°C° 0 mm 3 m/s 753 mmHg 57%
09:00 +20°C° 0 mm 3 m/s 753 mmHg 51%
10:00 +22°C° 0 mm 4 m/s 753 mmHg 48%
11:00 +23°C° 0 mm 4 m/s 753 mmHg 45%
12:00 +25°C° 0 mm 4 m/s 753 mmHg 42%
13:00 +25°C° 0 mm 4 m/s 753 mmHg 42%
14:00 +25°C° 0 mm 4 m/s 753 mmHg 42%
15:00 +25°C° 0 mm 4 m/s 752 mmHg 41%
16:00 +25°C° 0 mm 3 m/s 752 mmHg 47%
17:00 +24°C° 0 mm 2 m/s 752 mmHg 53%
18:00 +23°C° 0 mm 2 m/s 752 mmHg 59%
19:00 +21°C° 0 mm 1 m/s 752 mmHg 63%
20:00 +19°C° 0 mm 1 m/s 752 mmHg 67%
21:00 +18°C° 0 mm 1 m/s 752 mmHg 71%
22:00 +16°C° 0 mm 1 m/s 752 mmHg 73%
23:00 +16°C° 0 mm 1 m/s 752 mmHg 75%
Arată mai mult

Formular de consimțământ

Meteoprog și furnizorii noștri de servicii pot stoca și accesa date personale, precum cookies, identificatori de dispozitiv sau alte tehnologii similare pe dispozitivul dumneavoastră și procesa astfel de date pentru a personaliza conținutul și reclamele, dar și pentru a oferi caracteristici de social media și pentru a analiza traficul.

  • Stocarea și/sau accesarea informațiilor pe dispozitivul dumneavoastră

    Cookies, identificatori de dispozitiv sau alte informații pot fi stocate sau accesate pe dispozitiv în scopurile indicate mai sus.

  • Reclame și conținut personalizat, evaluarea reclamelor și a conținutului, informații despre audiențe și dezvoltarea produselor

    Reclamele și conținutul pot fi personalizate pe baza unui profil. Pot fi adăugate date suplimentare pentru a personaliza mai bine reclamele și conținutul. Performanța reclamelor și conținutului poate fi măsurată. Pot fi obținute informații despre utilizatorii care au văzut reclamele și conținutul. Aceste date pot fi utilizate pentru a dezvolta sau îmbunătăți experiența utilizatorilor, sistemele și software-ul.

Dând clic pe ‘Sunt de acord’, permiteți utilizarea cookie-urilor menționate, a identificatorilor de dispozitiv, balizelor web sau altor tehnologii similare. Setările pot fi modificate din browser-ul dispozitivului dumneavoastră.

În anumite scopuri, interesele legitime pot prima asupra consimțământului. Puteți citi mai multe informații în acest sens în Politica privind Confidențialitatea Datelor și Cookie.